N1YZ Weather Reports


Display with metric or nautical units.
time (UTC)temp
F
wind
direction
speed
MPH
gust
MPH
rain 1hr
in
rain 24hr
in
rain mn
in
humidity
%
barometer
mb
20240622200152 95 164 1.0 1.0 0.00 0.00 0.00 42 1036.3
20240622195651 96 164 0.0 0.0 0.00 0.00 0.00 39 1036.3
20240622195150 96 173 0.0 0.0 0.00 0.00 0.00 38 1036.5
20240622194649 96 205 0.0 0.0 0.00 0.00 0.00 42 1036.4
20240622194148 96 177 1.0 2.0 0.00 0.00 0.00 38 1036.7
20240622193645 96 183 0.0 0.0 0.00 0.00 0.00 40 1036.8
20240622193145 95 163 2.0 2.0 0.00 0.00 0.00 41 1036.8
20240622192642 94 168 3.0 3.0 0.00 0.00 0.00 41 1036.7
20240622192141 95 166 1.0 1.0 0.00 0.00 0.00 40 1036.7
20240622191641 95 188 0.0 1.0 0.00 0.00 0.00 40 1036.9
20240622191140 96 193 1.0 1.0 0.00 0.00 0.00 39 1037.0
20240622190639 96 192 1.0 1.0 0.00 0.00 0.00 39 1036.9
20240622190139 95 229 0.0 0.0 0.00 0.00 0.00 44 1037.1
20240622185638 94 170 0.0 0.0 0.00 0.00 0.00 43 1037.4
20240622185137 95 176 0.0 1.0 0.00 0.00 0.00 41 1037.3
20240622184636 94 176 0.0 0.0 0.00 0.00 0.00 41 1037.6
20240622184135 94 303 2.0 2.0 0.00 0.00 0.00 40 1037.7
20240622183634 93 2 2.0 3.0 0.00 0.00 0.00 42 1037.8
20240622183132 93 191 0.0 0.0 0.00 0.00 0.00 47 1037.9
20240622182631 93 218 1.0 2.0 0.00 0.00 0.00 45 1037.7
20240622182130 93 181 0.0 1.0 0.00 0.00 0.00 43 1037.8
20240622181629 93 188 1.0 1.0 0.00 0.00 0.00 45 1037.9
20240622181127 94 185 1.0 1.0 0.00 0.00 0.00 44 1038.1
20240622180626 93 169 0.0 1.0 0.00 0.00 0.00 43 1038.3
20240622180125 93 161 1.0 1.0 0.00 0.00 0.00 50 1038.2
20240622175622 91 191 1.0 1.0 0.00 0.00 0.00 44 1038.2
20240622175120 90 173 0.0 0.0 0.00 0.00 0.00 46 1038.3
20240622174618 93 156 0.0 0.0 0.00 0.00 0.00 45 1038.3
20240622174117 95 157 0.0 0.0 0.00 0.00 0.00 47 1038.6
20240622173615 94 177 0.0 0.0 0.00 0.00 0.00 44 1038.4
20240622173113 93 0 2.0 3.0 0.00 0.00 0.00 44 1038.7
20240622172613 94 218 1.0 1.0 0.00 0.00 0.00 44 1038.6
20240622172112 94 155 1.0 2.0 0.00 0.00 0.00 45 1038.9
20240622171611 93 177 1.0 1.0 0.00 0.00 0.00 46 1038.6
20240622171110 93 320 0.0 1.0 0.00 0.00 0.00 44 1038.9
20240622170608 92 204 1.0 1.0 0.00 0.00 0.00 49 1039.0
20240622170107 92 185 1.0 1.0 0.00 0.00 0.00 46 1038.9
20240622165607 92 185 0.0 1.0 0.00 0.00 0.00 49 1038.9
20240622165106 92 33 1.0 2.0 0.00 0.00 0.00 46 1039.1
20240622164604 90 158 0.0 0.0 0.00 0.00 0.00 50 1039.0
20240622164102 92 156 0.0 0.0 0.00 0.00 0.00 48 1039.1
20240622163601 93 176 0.0 0.0 0.00 0.00 0.00 50 1039.2
20240622163100 93 167 0.0 0.0 0.00 0.00 0.00 47 1039.3
20240622162600 92 172 0.0 1.0 0.00 0.00 0.00 46 1039.4
20240622162058 92 152 0.0 0.0 0.00 0.00 0.00 50 1039.4
20240622161556 90 153 0.0 0.0 0.00 0.00 0.00 50 1039.5
20240622161055 88 156 0.0 0.0 0.00 0.00 0.00 54 1039.3
20240622160555 89 156 0.0 0.0 0.00 0.00 0.00 52 1039.5
20240622160054 89 156 0.0 0.0 0.00 0.00 0.00 50 1039.6
20240622155553 88 155 0.0 0.0 0.00 0.00 0.00 51 1039.4
20240622155052 89 155 0.0 0.0 0.00 0.00 0.00 52 1039.7
20240622154551 90 155 0.0 0.0 0.00 0.00 0.00 50 1039.7
20240622154049 90 155 2.0 2.0 0.00 0.00 0.00 50 1039.5
20240622153547 92 156 0.0 0.0 0.00 0.00 0.00 48 1039.6
20240622153045 92 155 0.0 1.0 0.00 0.00 0.00 49 1039.7
20240622152544 91 159 1.0 1.0 0.00 0.00 0.00 50 1039.5
20240622152042 89 159 0.0 0.0 0.00 0.00 0.00 51 1039.6
20240622151542 91 158 1.0 1.0 0.00 0.00 0.00 50 1039.7
20240622151041 92 160 0.0 0.0 0.00 0.00 0.00 52 1039.6
20240622150540 92 159 0.0 0.0 0.00 0.00 0.00 52 1039.5
20240622150038 91 160 0.0 0.0 0.00 0.00 0.00 50 1039.7
20240622145537 90 160 0.0 0.0 0.00 0.00 0.00 53 1040.0
20240622145037 90 162 0.0 0.0 0.00 0.00 0.00 53 1039.6
20240622144534 87 162 0.0 0.0 0.00 0.00 0.00 54 1039.7
20240622144032 87 200 0.0 0.0 0.00 0.00 0.00 61 1039.7
20240622143530 87 202 0.0 0.0 0.00 0.00 0.00 59 1039.9
20240622143028 86 137 0.0 0.0 0.00 0.00 0.00 63 1039.7
20240622142527 84 138 0.0 0.0 0.00 0.00 0.00 63 1039.8
20240622142026 84 137 0.0 0.0 0.00 0.00 0.00 65 1039.9
20240622141525 83 138 0.0 0.0 0.00 0.00 0.00 65 1039.9
20240622141024 82 138 0.0 0.0 0.00 0.00 0.00 70 1039.9
20240622140523 82 137 0.0 0.0 0.00 0.00 0.00 72 1039.9
20240622140021 81 138 0.0 0.0 0.00 0.00 0.00 72 1039.8
20240622135517 81 138 0.0 0.0 0.00 0.00 0.00 72 1040.2
20240622135016 81 138 0.0 0.0 0.00 0.00 0.00 75 1039.9
20240622134514 80 139 0.0 0.0 0.00 0.00 0.00 76 1040.0
20240622134013 79 139 0.0 0.0 0.00 0.00 0.00 77 1040.0
20240622133509 79 139 0.0 0.0 0.00 0.00 0.00 78 1040.1
20240622133010 79 138 1.0 1.0 0.00 0.00 0.00 78 1040.1
20240622132509 78 147 0.0 0.0 0.00 0.00 0.00 79 1040.2
20240622132006 77 147 0.0 0.0 0.00 0.00 0.00 80 1039.9
20240622131505 77 147 0.0 0.0 0.00 0.00 0.00 81 1040.0
20240622131004 77 146 0.0 0.0 0.00 0.00 0.00 81 1039.9
20240622130502 76 142 0.0 0.0 0.00 0.00 0.00 82 1040.2
20240622130001 76 142 0.0 0.0 0.00 0.00 0.00 83 1040.0
20240622125500 76 142 0.0 0.0 0.00 0.00 0.00 83 1040.0
20240622124958 75 142 0.0 0.0 0.00 0.00 0.00 83 1040.0
20240622124456 75 143 0.0 0.0 0.00 0.00 0.00 84 1040.1
20240622123954 75 143 0.0 0.0 0.00 0.00 0.00 85 1039.8
20240622123453 74 143 0.0 0.0 0.00 0.00 0.00 85 1040.1
20240622122952 74 143 0.0 0.0 0.00 0.00 0.00 86 1040.0
20240622122450 73 143 0.0 0.0 0.00 0.00 0.00 87 1040.1
20240622121949 73 143 0.0 0.0 0.00 0.00 0.00 87 1040.1
20240622121448 73 143 0.0 0.0 0.00 0.00 0.00 88 1040.0
20240622120947 72 143 0.0 0.0 0.00 0.00 0.00 88 1040.1
20240622120446 72 143 0.0 0.0 0.00 0.00 0.00 89 1040.1
20240622115945 71 143 0.0 0.0 0.00 0.00 0.00 89 1040.1
20240622115445 71 143 0.0 0.0 0.00 0.00 0.00 89 1039.9
20240622114944 71 143 0.0 0.0 0.00 0.00 0.00 90 1040.0
20240622114443 71 143 0.0 0.0 0.00 0.00 0.00 90 1039.9
20240622113941 70 143 0.0 0.0 0.00 0.00 0.00 91 1039.8
20240622113440 70 143 0.0 0.0 0.00 0.00 0.00 91 1039.8
20240622112940 70 142 0.0 0.0 0.00 0.00 0.00 91 1039.7
20240622112438 70 142 0.0 0.0 0.00 0.00 0.00 90 1039.8
20240622111937 70 143 0.0 0.0 0.00 0.00 0.00 90 1039.6
20240622111437 71 142 0.0 0.0 0.00 0.00 0.00 90 1039.7
20240622110937 71 142 0.0 0.0 0.00 0.00 0.00 89 1039.7
20240622110436 71 142 0.0 0.0 0.00 0.00 0.00 89 1039.7
20240622105935 71 142 0.0 0.0 0.00 0.00 0.00 88 1039.8
20240622105434 71 142 0.0 0.0 0.00 0.00 0.00 89 1039.7
20240622104932 71 142 0.0 0.0 0.00 0.00 0.00 89 1039.8
20240622104430 71 142 0.0 0.0 0.00 0.00 0.00 89 1039.7
20240622103929 71 142 0.0 0.0 0.00 0.00 0.00 88 1039.6
20240622103429 71 142 0.0 0.0 0.00 0.00 0.00 88 1039.5
20240622102929 71 142 0.0 0.0 0.00 0.00 0.00 88 1039.6
20240622102427 71 142 0.0 0.0 0.00 0.00 0.00 87 1039.6
20240622101925 71 142 0.0 0.0 0.00 0.00 0.00 89 1039.5
20240622101423 71 142 0.0 0.0 0.00 0.00 0.00 88 1039.6
20240622100921 71 142 0.0 0.0 0.00 0.00 0.00 88 1039.6
20240622100420 71 142 0.0 0.0 0.00 0.00 0.00 87 1039.6
20240622095918 71 142 0.0 0.0 0.00 0.00 0.00 88 1039.7
20240622095417 71 142 0.0 0.0 0.00 0.00 0.00 88 1039.5
20240622094915 71 143 0.0 0.0 0.00 0.00 0.00 88 1039.5
20240622094414 71 142 0.0 0.0 0.00 0.00 0.00 87 1039.5
20240622093913 71 142 0.0 0.0 0.00 0.00 0.00 87 1039.6
20240622093410 71 142 0.0 0.0 0.00 0.00 0.00 87 1039.6
20240622092909 71 143 0.0 0.0 0.00 0.00 0.00 87 1039.6
20240622092407 71 143 0.0 0.0 0.00 0.00 0.00 87 1039.4
20240622091906 71 143 0.0 0.0 0.00 0.00 0.00 87 1039.5
20240622091405 71 143 0.0 0.0 0.00 0.00 0.00 87 1039.3
20240622090904 71 143 0.0 0.0 0.00 0.00 0.00 87 1039.6
20240622090404 71 143 0.0 0.0 0.00 0.00 0.00 87 1039.5
20240622085902 71 143 0.0 0.0 0.00 0.00 0.00 87 1039.5
20240622085400 72 142 0.0 0.0 0.00 0.00 0.00 86 1039.5
20240622084858 72 143 0.0 0.0 0.00 0.00 0.00 85 1039.3
20240622084356 72 143 0.0 0.0 0.00 0.00 0.00 84 1039.2
20240622083854 72 143 0.0 0.0 0.00 0.00 0.00 85 1039.1
20240622083352 72 143 0.0 0.0 0.00 0.00 0.00 85 1039.2
20240622082850 72 143 0.0 0.0 0.00 0.00 0.00 85 1039.3
20240622082349 73 143 0.0 0.0 0.00 0.00 0.00 84 1039.4
20240622081846 72 143 0.0 0.0 0.00 0.00 0.00 84 1039.0
20240622081344 72 143 0.0 0.0 0.00 0.00 0.00 85 1039.2
20240622080844 72 143 0.0 0.0 0.00 0.00 0.00 84 1039.3
20240622080341 73 143 0.0 0.0 0.00 0.00 0.00 84 1039.3
20240622075839 73 143 0.0 0.0 0.00 0.00 0.00 84 1039.4
20240622075337 73 143 0.0 0.0 0.00 0.00 0.00 83 1039.1
20240622074836 73 143 0.0 0.0 0.00 0.00 0.00 83 1039.3
20240622074335 73 143 0.0 0.0 0.00 0.00 0.00 83 1039.2
20240622073835 73 143 0.0 0.0 0.00 0.00 0.00 82 1039.2
20240622073333 73 143 0.0 0.0 0.00 0.00 0.00 82 1039.2
20240622072831 73 143 0.0 0.0 0.00 0.00 0.00 82 1039.1
20240622072329 73 143 0.0 0.0 0.00 0.00 0.00 82 1038.9
20240622071828 74 143 0.0 0.0 0.00 0.00 0.00 80 1038.9
20240622071326 74 143 0.0 0.0 0.00 0.00 0.00 81 1039.0
20240622070813 74 143 0.0 0.0 0.00 0.00 0.00 81 1039.3
20240622070313 74 143 0.0 0.0 0.00 0.00 0.00 80 1039.4
20240622065812 74 143 0.0 0.0 0.00 0.00 0.00 80 1039.0
20240622065310 74 143 0.0 0.0 0.00 0.00 0.00 79 1039.3
20240622064810 74 143 0.0 0.0 0.00 0.00 0.00 80 1039.2
20240622064310 74 143 0.0 0.0 0.00 0.00 0.00 80 1039.0
20240622063808 74 143 0.0 0.0 0.00 0.00 0.00 80 1039.2
20240622063307 74 143 0.0 0.0 0.00 0.00 0.00 81 1039.3
20240622062806 74 143 0.0 0.0 0.00 0.00 0.00 80 1039.2
20240622062306 74 143 0.0 0.0 0.00 0.00 0.00 79 1039.4
20240622061802 74 143 0.0 0.0 0.00 0.00 0.00 80 1039.5
20240622061300 74 143 0.0 0.0 0.00 0.00 0.00 80 1039.4
20240622060759 74 143 0.0 0.0 0.00 0.00 0.00 80 1039.5
20240622060258 74 143 0.0 0.0 0.00 0.00 0.00 79 1039.6
20240622055758 75 143 0.0 0.0 0.00 0.00 0.00 79 1039.5
20240622055257 75 143 0.0 0.0 0.00 0.00 0.00 79 1039.8
20240622054756 75 143 0.0 0.0 0.00 0.00 0.00 78 1039.5
20240622054256 75 143 0.0 0.0 0.00 0.00 0.00 78 1039.4
20240622053755 75 143 0.0 0.0 0.00 0.00 0.00 77 1039.5
20240622053253 76 143 0.0 0.0 0.00 0.00 0.00 76 1039.5
20240622052751 75 143 0.0 0.0 0.00 0.00 0.00 76 1039.5
20240622052249 76 143 0.0 0.0 0.00 0.00 0.00 75 1039.5
20240622051747 76 143 0.0 0.0 0.00 0.00 0.00 75 1039.7
20240622051246 76 143 0.0 0.0 0.00 0.00 0.00 74 1039.4
20240622050745 77 143 0.0 0.0 0.00 0.00 0.00 73 1039.5
20240622050245 77 143 0.0 0.0 0.00 0.00 0.00 72 1039.7
20240622045743 77 143 0.0 0.0 0.00 0.00 0.00 73 1039.5
20240622045242 78 143 0.0 0.0 0.00 0.00 0.00 71 1039.7
20240622044741 78 143 0.0 0.0 0.00 0.00 0.00 71 1039.3
20240622044240 78 143 0.0 0.0 0.00 0.00 0.00 70 1039.5
20240622043738 78 143 0.0 0.0 0.00 0.00 0.00 72 1039.6
20240622043236 78 143 0.0 0.0 0.00 0.00 0.00 71 1039.6
20240622042735 79 143 0.0 0.0 0.00 0.00 0.00 69 1039.5
20240622042235 79 143 0.0 0.0 0.00 0.00 0.00 68 1039.6
20240622041732 79 143 0.0 0.0 0.00 0.00 0.00 68 1039.9
20240622041231 79 143 0.0 0.0 0.00 0.00 0.00 68 1039.6
20240622040727 79 143 0.0 0.0 0.00 0.00 0.00 68 1039.6
20240622040227 78 143 0.0 0.0 0.00 0.00 0.00 69 1039.6
20240622035725 79 143 0.0 0.0 0.00 0.00 0.00 68 1039.6
20240622035224 79 143 0.0 0.0 0.00 0.00 0.00 67 1039.7
20240622034724 80 143 0.0 0.0 0.00 0.00 0.00 67 1039.7
20240622034222 80 144 0.0 0.0 0.00 0.00 0.00 66 1039.8
20240622033719 80 143 0.0 0.0 0.00 0.00 0.00 65 1039.7
20240622033218 80 143 0.0 0.0 0.00 0.00 0.00 65 1039.6
20240622032716 81 143 0.0 0.0 0.00 0.00 0.00 64 1039.6
20240622032215 81 142 0.0 0.0 0.00 0.00 0.00 63 1039.7
20240622031713 81 142 0.0 0.0 0.00 0.00 0.00 63 1039.7
20240622031213 81 141 0.0 0.0 0.00 0.00 0.00 63 1039.8
20240622030712 81 144 0.0 0.0 0.00 0.00 0.00 62 1039.6
20240622030212 81 144 0.0 0.0 0.00 0.00 0.00 62 1039.5
20240622025710 82 144 0.0 0.0 0.00 0.00 0.00 61 1039.3
20240622025208 82 153 0.0 0.0 0.00 0.00 0.00 61 1039.6
20240622024708 81 154 0.0 0.0 0.00 0.00 0.00 62 1039.7
20240622024207 81 154 0.0 0.0 0.00 0.00 0.00 62 1039.4
20240622023706 82 154 0.0 0.0 0.00 0.00 0.00 60 1039.5
20240622023205 82 154 0.0 0.0 0.00 0.00 0.00 59 1039.3
20240622022704 82 154 0.0 0.0 0.00 0.00 0.00 59 1039.3
20240622022204 83 154 0.0 0.0 0.00 0.00 0.00 58 1039.3
20240622021703 83 154 0.0 0.0 0.00 0.00 0.00 57 1039.4
20240622021201 84 155 0.0 0.0 0.00 0.00 0.00 57 1039.3
20240622020659 84 155 0.0 0.0 0.00 0.00 0.00 57 1039.1
20240622020159 84 155 0.0 0.0 0.00 0.00 0.00 57 1039.0
20240622015657 84 155 0.0 0.0 0.00 0.00 0.00 57 1039.2
20240622015157 84 155 0.0 0.0 0.00 0.00 0.00 57 1039.3
20240622014656 84 155 0.0 0.0 0.00 0.00 0.00 55 1039.2
20240622014152 85 155 0.0 0.0 0.00 0.00 0.00 54 1039.2
20240622013650 86 155 0.0 0.0 0.00 0.00 0.00 53 1039.0
20240622013150 86 155 0.0 0.0 0.00 0.00 0.00 53 1039.1
20240622012648 86 155 0.0 0.0 0.00 0.00 0.00 51 1039.1
20240622012146 86 156 0.0 0.0 0.00 0.00 0.00 51 1039.2
20240622011647 86 156 0.0 0.0 0.00 0.00 0.00 51 1039.0
20240622011145 87 156 0.0 0.0 0.00 0.00 0.00 51 1039.2
20240622010644 87 156 0.0 0.0 0.00 0.00 0.00 51 1038.8
20240622010142 87 156 0.0 0.0 0.00 0.00 0.00 51 1039.0
20240622005639 87 156 0.0 0.0 0.00 0.00 0.00 51 1038.9
20240622005138 87 156 0.0 0.0 0.00 0.00 0.00 51 1039.2
20240622004637 87 156 0.0 0.0 0.00 0.00 0.00 51 1039.0
20240622004138 87 156 0.0 0.0 0.00 0.00 0.00 50 1038.9
20240622003637 87 156 0.0 0.0 0.00 0.00 0.00 50 1038.9
20240622003135 87 156 0.0 0.0 0.00 0.00 0.00 50 1039.1
20240622002633 88 156 0.0 0.0 0.00 0.00 0.00 50 1039.0
20240622002132 88 156 0.0 0.0 0.00 0.00 0.00 49 1039.2
20240622001631 88 156 0.0 0.0 0.00 0.00 0.00 49 1039.1
20240622001131 88 156 0.0 0.0 0.00 0.00 0.00 49 1039.1
20240622000630 88 156 0.0 0.0 0.00 0.00 0.00 49 1039.0
20240622000130 89 156 0.0 0.0 0.00 0.00 0.00 49 1038.9
20240621235630 89 156 0.0 0.0 0.00 0.00 0.00 48 1038.8
20240621235129 89 156 0.0 0.0 0.00 0.00 0.00 47 1038.7
20240621234629 89 156 0.0 0.0 0.00 0.00 0.00 47 1038.9
20240621234127 89 156 0.0 0.0 0.00 0.00 0.00 48 1038.8
20240621233626 88 156 0.0 0.0 0.00 0.00 0.00 50 1039.0
20240621233125 89 156 0.0 0.0 0.00 0.00 0.00 49 1038.9
20240621232621 89 156 0.0 0.0 0.00 0.00 0.00 48 1038.9
20240621232119 89 156 0.0 0.0 0.00 0.00 0.00 48 1038.7
20240621231618 89 156 0.0 0.0 0.00 0.00 0.00 48 1039.0
20240621231116 89 156 0.0 0.0 0.00 0.00 0.00 49 1039.0
20240621230616 89 156 0.0 0.0 0.00 0.00 0.00 48 1039.1
20240621230115 89 156 0.0 0.0 0.00 0.00 0.00 47 1039.2
20240621225613 89 156 0.0 0.0 0.00 0.00 0.00 47 1039.0
20240621225113 89 155 0.0 0.0 0.00 0.00 0.00 47 1038.9
20240621224612 89 156 0.0 0.0 0.00 0.00 0.00 47 1039.1
20240621224111 90 155 0.0 0.0 0.00 0.00 0.00 47 1038.8
20240621223609 90 157 0.0 0.0 0.00 0.00 0.00 46 1039.2
20240621223109 90 172 0.0 0.0 0.00 0.00 0.00 48 1039.0
20240621222608 90 170 0.0 0.0 0.00 0.00 0.00 49 1039.2
20240621222107 90 218 0.0 0.0 0.00 0.00 0.00 48 1039.3
20240621221605 90 218 0.0 0.0 0.00 0.00 0.00 48 1039.1
20240621221104 90 221 0.0 0.0 0.00 0.00 0.00 46 1039.1
20240621220603 89 183 0.0 0.0 0.00 0.00 0.00 47 1039.3
20240621220050 91 190 0.0 0.0 0.00 0.00 0.00 47 1039.4
20240621215549 91 170 0.0 0.0 0.00 0.00 0.00 45 1039.3
20240621215048 91 220 0.0 0.0 0.00 0.00 0.00 45 1039.5
20240621214546 90 342 0.0 0.0 0.00 0.00 0.00 45 1039.6
20240621214046 90 164 0.0 0.0 0.00 0.00 0.00 49 1039.8
20240621213545 90 164 0.0 0.0 0.00 0.00 0.00 47 1039.5
20240621213045 91 164 0.0 0.0 0.00 0.00 0.00 47 1039.4
20240621212543 91 359 1.0 2.0 0.00 0.00 0.00 45 1039.7
20240621212041 91 236 0.0 0.0 0.00 0.00 0.00 48 1039.7
20240621211540 91 171 2.0 2.0 0.00 0.00 0.00 48 1039.8
20240621211039 92 177 1.0 1.0 0.00 0.00 0.00 46 1039.7
20240621210537 91 155 0.0 1.0 0.00 0.00 0.00 44 1039.9
20240621210036 91 140 2.0 2.0 0.00 0.00 0.00 48 1039.9
20240621205535 91 165 0.0 0.0 0.00 0.00 0.00 44 1040.0
20240621205033 91 168 1.0 1.0 0.00 0.00 0.00 47 1040.0
20240621204532 90 159 0.0 0.0 0.00 0.00 0.00 46 1040.1
20240621204032 91 166 0.0 0.0 0.00 0.00 0.00 46 1040.1
20240621203531 91 171 1.0 1.0 0.00 0.00 0.00 46 1040.1
20240621203031 91 147 2.0 2.0 0.00 0.00 0.00 47 1040.2
20240621202528 91 250 0.0 0.0 0.00 0.00 0.00 44 1040.3
20240621202027 91 217 0.0 0.0 0.00 0.00 0.00 44 1040.4
20240621201525 91 211 0.0 0.0 0.00 0.00 0.00 44 1040.4
20240621201024 92 233 0.0 1.0 0.00 0.00 0.00 46 1040.3
20240621200521 93 310 2.0 2.0 0.00 0.00 0.00 42 1040.4